User: anonymous   Login
Location: Houston
(29.7630°N, 95.3630°W)
Time: 21:30:29
(UTC-05:00)
Language:

Saudisat 1A - Orbit

View from above orbital plane
View from above orbital plane
View from above satellite
View from above satellite

Ground track
Ground track

The orbit data is extracted from the following two-line orbital elements,

1 26546U 00057B   17085.76338216 +.00000271 +00000-0 +43620-4 0  9991
2 26546 064.5539 233.2701 0036479 234.7482 125.0213 14.90479035894371
Epoch (UTC): 26 March 2017 18:19:16
Eccentricity: 0.0036479
inclination: 64.5539°
perigee height: 571 km
apogee height: 622 km
right ascension of ascending node: 233.2701°
argument of perigee: 234.7482°
revolutions per day: 14.90479035
mean anomaly at epoch: 125.0213°
orbit number at epoch: 89437

The dashed part of the orbit path shows where the satellite is in the earth's shadow,  

DLR